User: anonymous   Login
Location: Saratoga Springs
(43.0831°N, 73.7850°W)
Time: 14:35:36
(UTC-04:00)
Language:

Transit 2A - Orbit

View from above orbital plane
View from above orbital plane
View from above satellite
View from above satellite

Ground track
Ground track

The orbit data is extracted from the following two-line orbital elements,

1    45U 60007A   24114.54196209  .00000787  00000-0  22070-3 0  9996
2    45  66.6932 273.8318 0251459  10.0497 350.5496 14.34660214324307
Epoch (UTC): 23 April 2024 13:00:25
Eccentricity: 0.0251459
inclination: 66.6932°
perigee height: 596 km
apogee height: 956 km
right ascension of ascending node: 273.8318°
argument of perigee: 10.0497°
revolutions per day: 14.34660214
mean anomaly at epoch: 350.5496°
orbit number at epoch: 32430

The dashed part of the orbit path shows where the satellite is in the earth's shadow,  

DLR